EDT,Max TemperatureF,Mean TemperatureF,Min TemperatureF,Max Dew PointF,MeanDew PointF,Min DewpointF,Max Humidity, Mean Humidity, Min Humidity, Max Sea Level PressureIn, Mean Sea Level PressureIn, Min Sea Level PressureIn, Max VisibilityMiles, Mean VisibilityMiles, Min VisibilityMiles, Max Wind SpeedMPH, Mean Wind SpeedMPH, Max Gust SpeedMPH,PrecipitationIn, CloudCover, Events, WindDirDegrees
2012-10-1,71,64,60,72,64,61,100,97,83,29.90,29.85,29.81,10,6,1,20,12,33,0.60,8,Rain,64
2012-10-2,87,79,71,77,74,72,100,92,58,29.98,29.85,29.78,10,8,3,28,10,38,0.04,5,Rain,164
2012-10-3,82,76,69,75,72,66,100,89,58,30.20,30.09,29.99,10,8,5,15,8,21,0.00,3,,223
2012-10-4,77,70,64,70,67,64,100,94,69,30.26,30.20,30.16,10,9,1,12,4,18,0.04,2,Rain,257
2012-10-5,80,70,60,64,61,57,100,87,45,30.20,30.13,30.03,10,8,0,13,3,17,0.00,0,Fog,115
2012-10-6,84,70,55,66,60,55,100,80,40,30.04,29.96,29.88,10,7,0,24,4,33,0.00,1,Fog,246
2012-10-7,69,61,53,64,57,52,100,88,68,30.13,30.02,29.94,10,10,7,30,12,51,0.00,4,,12
2012-10-8,55,52,48,52,50,46,100,92,77,30.18,30.14,30.10,10,8,1,28,15,38,1.19,8,Rain,26
2012-10-9,57,52,46,54,50,46,100,94,82,30.17,30.13,30.10,10,8,2,20,11,25,0.00,8,,354
2012-10-10,71,58,46,55,52,46,100,84,50,30.13,30.08,30.02,10,9,0,20,8,33,0.00,2,Fog,261
2012-10-11,69,56,44,52,45,39,100,74,33,30.31,30.23,30.13,10,9,2,21,5,30,0.00,0,,34
2012-10-12,73,58,42,55,50,43,100,83,38,30.30,30.22,30.18,10,9,2,13,2,18,0.00,0,,24
2012-10-13,71,58,46,52,47,43,100,73,38,30.45,30.38,30.31,10,10,10,24,8,31,0.00,0,,59
2012-10-14,78,61,44,63,55,45,100,84,47,30.33,30.20,30.05,10,10,5,16,3,26,0.00,3,,121
2012-10-15,78,69,59,68,61,43,100,80,43,30.05,29.88,29.73,10,10,10,33,9,48,0.00,4,,236
2012-10-16,69,56,44,48,44,39,100,63,33,29.99,29.92,29.87,10,10,10,22,9,31,0.00,0,,355
2012-10-17,71,56,42,52,47,43,100,79,35,30.03,29.96,29.92,10,10,5,18,3,23,0.00,0,,151
2012-10-18,80,63,46,66,57,46,100,86,48,29.93,29.86,29.78,10,9,5,25,5,36,0.00,3,,154
2012-10-19,75,63,50,66,50,36,100,66,24,29.82,29.78,29.73,10,9,1,33,11,51,0.21,1,Rain,226
2012-10-20,71,58,44,52,44,39,94,67,31,29.95,29.84,29.79,10,10,10,23,8,38,0.00,0,Rain,271
2012-10-21,69,56,42,48,44,39,100,70,35,30.16,30.10,29.97,10,10,10,24,6,37,0.00,0,,2
2012-10-22,75,57,39,52,46,39,100,73,34,30.25,30.19,30.14,10,10,6,13,2,,0.00,0,,252
2012-10-23,78,60,42,55,49,43,100,73,32,30.22,30.16,30.11,10,8,1,15,3,20,0.00,0,,189
2012-10-24,80,63,46,61,52,46,100,81,34,30.21,30.15,30.10,10,8,1,12,2,17,0.00,0,,190
2012-10-25,82,66,50,64,57,50,100,82,42,30.16,30.11,30.07,10,7,0,17,2,24,0.00,0,Fog,72
2012-10-26,69,62,55,63,59,55,100,90,68,30.09,30.01,29.89,10,8,0,30,11,41,0.00,0,Fog,22
2012-10-27,69,66,62,63,59,54,100,82,68,29.88,29.74,29.67,10,10,10,34,23,48,0.00,6,,12
2012-10-28,71,64,55,54,49,39,77,62,41,29.67,29.62,29.57,10,10,10,31,22,46,0.00,8,,352
2012-10-29,55,50,44,39,34,30,71,52,44,29.63,29.58,29.49,10,10,10,37,21,56,0.01,8,Rain,308
2012-10-30,53,48,42,37,32,30,76,55,44,29.68,29.53,29.44,10,10,10,32,19,47,0.00,8,,266
2012-10-31,62,50,37,39,35,34,93,67,36,29.80,29.73,29.68,10,10,10,24,10,33,0.00,8,,254